Location: General Nathan Twining Observatory
(34.5931°N, 106.8201°W)
Time: 13:37:36
(UTC-07:00)

Meteor 2-5 Rocket - Pass Details

Date: 20 September 2017
Orbit: 833 x 912 km, 81.2° (Epoch: 17 December)

Event Time Altitude Azimuth Distance (km) Brightness Sun altitude
Rises 20:41:24 0° 348° (NNW) 3,529 7.3 -20.1°
Reaches altitude 10° 20:43:54 10° 345° (NNW) 2,576 6.6 -20.6°
Maximum altitude 20:49:42 65° 265° (W) 969 4.2 -21.8°
Drops below altitude 10° 20:55:21 10° 185° (S) 2,510 6.0 -22.9°
Sets 20:57:46 0° 182° (S) 3,432 6.7 -23.4°
